Location: Bruderhein
(53.8035°N, 112.9265°W)
Time: 21:45:45
(UTC+00:00)

METEOR M2 - Visible Passes

Search period start: 31 March 2023 00:00
Search period end: 10 April 2023 00:00
Orbit: 819 x 826 km, 98.4° (Epoch: 31 March)

Date Brightness Start Highest point End Pass type
(mag) Time Alt. Az. Time Alt. Az. Time Alt. Az.
31 Mar ? 02:35:25 10° WSW 02:38:40 16° W 02:41:56 10° NW visible
02 Apr ? 12:24:51 10° NE 12:27:30 14° E 12:30:07 10° ESE visible
04 Apr ? 02:57:55 10° W 02:59:16 11° W 03:00:37 10° WNW visible
09 Apr ? 02:58:19 10° W 02:59:30 11° W 03:00:41 10° WNW visible
